Houston Clover, TX

10:23 AM CDT on September 17, 2019 (GMT -0500)
Clover

Weather History for KLVJ - August, 2019

Change the Weather History Date:

Saturday, August 24, 2019

  Actual Average (KEFD) Record (KEFD)
Temperature  
Mean Temperature 82 °F -  
Max Temperature 90 °F 89 °F 100 °F (2013)
Min Temperature 75 °F 73 °F 73 °F (1997)
Cooling Degree Days 17    
Growing Degree Days 32 (Base 50)    
Moisture  
Dew Point 75 °F    
Average Humidity 80    
Maximum Humidity 94    
Minimum Humidity 61    
Precipitation  
Precipitation 0.00 in - - ()
Sea Level Pressure  
Sea Level Pressure 29.92 in    
Wind  
Wind Speed 3 mph (East)    
Max Wind Speed 10 mph    
Max Gust Speed -    
Visibility 10 miles    
Events      
Averages and records for this station are not official NWS values.
T = Trace of Precipitation, MM = Missing Value Source: NWS Daily Summary

Daily Weather History Graph

Daily Weather History Graph

Search for Another Location

Airport or City:

Astronomy

Aug. 24, 2019 Rise Set
Actual Time 6:53 AM CDT 7:52 PM CDT
Civil Twilight 6:29 AM CDT 8:16 PM CDT
Nautical Twilight 6:00 AM CDT 8:45 PM CDT
Astronomical Twilight 5:30 AM CDT 9:15 PM CDT
Moon 12:56 AM CDT (8/24) 2:57 PM CDT (8/24)
Length of Visible Light 13h 47m
Length of Day
12h 58m
Last Quarter, 39% of the Moon is Illuminated
Aug 24
Last Quarter
Aug 30
New
Sep 5
First Quarter
Sep 13
Full
Sep 21
Last Quarter

Hourly Weather History & Observations

Time (CDT) Temp. Heat Index Dew Point Humidity Pressure Visibility Wind Dir Wind Speed Gust Speed Precip Events Conditions
12:53 AM 77.0 °F - 73.9 °F 90% 29.90 in 10.0 mi East 3.5 mph - N/A   Clear
1:53 AM 77.0 °F - 73.9 °F 90% 29.92 in 10.0 mi Calm Calm - N/A   Clear
2:53 AM 75.9 °F - 73.9 °F 94% 29.91 in 10.0 mi Calm Calm - N/A   Clear
3:53 AM 77.0 °F - 73.9 °F 90% 29.92 in 10.0 mi Calm Calm - N/A   Mostly Cloudy
4:25 AM 78.1 °F - 73.9 °F 87% 29.92 in 10.0 mi Calm Calm - N/A   Scattered Clouds
4:53 AM 77.0 °F - 73.9 °F 90% 29.92 in 10.0 mi Calm Calm - N/A   Clear
5:53 AM 77.0 °F - 73.9 °F 90% 29.91 in 10.0 mi North 3.5 mph - N/A   Clear
6:28 AM 77.0 °F - 73.9 °F 90% 29.92 in 10.0 mi Calm Calm - N/A   Mostly Cloudy
6:39 AM 78.1 °F - 73.9 °F 87% 29.92 in 10.0 mi Calm Calm - N/A   Mostly Cloudy
6:53 AM 78.1 °F - 73.9 °F 87% 29.93 in 10.0 mi NNE 4.6 mph - N/A   Mostly Cloudy
7:05 AM 78.1 °F - 73.9 °F 87% 29.93 in 10.0 mi NE 3.5 mph - N/A   Overcast
7:34 AM 79.0 °F - 75.0 °F 88% 29.93 in 10.0 mi NNE 3.5 mph - N/A   Overcast
7:53 AM 79.0 °F - 75.0 °F 88% 29.93 in 10.0 mi North 5.8 mph - N/A   Mostly Cloudy
8:53 AM 80.1 °F 85.4 °F 75.9 °F 87% 29.95 in 10.0 mi East 4.6 mph - N/A   Mostly Cloudy
9:53 AM 81.0 °F 87.3 °F 75.9 °F 85% 29.94 in 10.0 mi NE 8.1 mph - N/A   Clear
10:53 AM 86.0 °F 95.1 °F 75.0 °F 70% 29.94 in 10.0 mi NNE 8.1 mph - N/A   Clear
11:53 AM 86.0 °F 93.8 °F 73.9 °F 67% 29.94 in 10.0 mi East 4.6 mph - N/A   Mostly Cloudy
12:29 PM 86.0 °F 95.1 °F 75.0 °F 70% 29.95 in 10.0 mi East 6.9 mph - N/A   Mostly Cloudy
12:37 PM 87.1 °F 95.4 °F 73.9 °F 65% 29.94 in 10.0 mi East 6.9 mph - N/A   Mostly Cloudy
12:53 PM 88.0 °F 97.5 °F 75.0 °F 65% 29.94 in 10.0 mi East 9.2 mph - N/A   Scattered Clouds
1:53 PM 88.0 °F 96.5 °F 73.9 °F 63% 29.92 in 10.0 mi ESE 5.8 mph - N/A   Scattered Clouds
2:53 PM 89.1 °F 98.0 °F 73.9 °F 61% 29.89 in 10.0 mi South 5.8 mph - N/A   Clear
4:53 PM 89.1 °F 98.0 °F 73.9 °F 61% 29.85 in 10.0 mi South 10.4 mph - N/A   Partly Cloudy
5:53 PM 87.1 °F 96.3 °F 75.0 °F 67% 29.84 in 10.0 mi South 9.2 mph - N/A   Clear
6:53 PM 86.0 °F 95.1 °F 75.0 °F 70% 29.86 in 10.0 mi SSE 8.1 mph - N/A   Clear
7:53 PM 84.0 °F 92.6 °F 75.9 °F 76% 29.88 in 10.0 mi South 5.8 mph - N/A   Clear
8:53 PM 82.0 °F 89.4 °F 75.9 °F 82% 29.89 in 10.0 mi South 4.6 mph - N/A   Clear
9:53 PM 81.0 °F 87.3 °F 75.9 °F 85% 29.92 in 10.0 mi Calm Calm - N/A   Partly Cloudy
10:53 PM 81.0 °F 87.3 °F 75.9 °F 85% 29.93 in 10.0 mi South 3.5 mph - N/A   Clear
11:53 PM 80.1 °F 85.4 °F 75.9 °F 87% 29.93 in 10.0 mi South 3.5 mph - N/A   Clear